Time,TemperatureF,DewpointF,PressureIn,WindDirection,WindDirectionDegrees,WindSpeedMPH,WindSpeedGustMPH,Humidity,HourlyPrecipIn,Conditions,Clouds,dailyrainin,SoftwareType,DateUTC
2013-04-13 00:00:00,30.0,17.0,-100.00,WSW,254,7.0,8.0,58,0.00,,,0.00,,2013-04-13 06:00:00,
2013-04-13 00:45:00,30.0,17.0,-100.00,WSW,254,7.0,8.0,58,0.00,,,0.00,,2013-04-13 06:45:00,
2013-04-13 00:54:00,30.0,17.0,-100.00,WSW,254,7.0,8.0,58,0.00,,,0.00,,2013-04-13 06:54:00,
2013-04-13 01:00:00,32.0,16.0,-100.00,WSW,252,8.0,11.0,52,0.00,,,0.00,,2013-04-13 07:00:00,
2013-04-13 01:44:00,32.0,16.0,-100.00,WSW,252,8.0,11.0,52,0.00,,,0.00,,2013-04-13 07:44:00,
2013-04-13 02:00:00,34.0,17.0,-100.00,SSW,200,4.0,6.0,49,0.00,,,0.00,,2013-04-13 08:00:00,
2013-04-13 02:44:00,34.0,17.0,-100.00,SSW,200,4.0,6.0,49,0.00,,,0.00,,2013-04-13 08:44:00,
2013-04-13 02:54:00,34.0,17.0,-100.00,SSW,200,4.0,6.0,49,0.00,,,0.00,,2013-04-13 08:54:00,
2013-04-13 03:00:00,34.0,17.0,-100.00,WSW,238,7.0,9.0,50,0.00,,,0.00,,2013-04-13 09:00:00,
2013-04-13 03:55:00,34.0,17.0,-100.00,WSW,238,7.0,9.0,50,0.00,,,0.00,,2013-04-13 09:55:00,
2013-04-13 04:45:00,40.0,16.0,-100.00,WSW,248,7.0,10.0,38,0.01,,,0.01,,2013-04-13 10:45:00,
2013-04-13 04:55:00,40.0,16.0,-100.00,WSW,248,7.0,10.0,38,0.01,,,0.01,,2013-04-13 10:55:00,
2013-04-13 05:00:00,39.0,18.0,-100.00,WNW,302,10.0,14.0,42,-99.99,,,0.00,,2013-04-13 11:00:00,
2013-04-13 05:44:00,39.0,18.0,-100.00,WNW,302,10.0,14.0,42,-99.99,,,0.00,,2013-04-13 11:44:00,
2013-04-13 05:53:00,39.0,18.0,-100.00,WNW,302,10.0,14.0,42,-99.99,,,0.00,,2013-04-13 11:53:00,
2013-04-13 06:00:00,35.0,19.0,-100.00,West,274,8.0,16.0,50,0.00,,,0.00,,2013-04-13 12:00:00,
2013-04-13 06:45:00,35.0,19.0,-100.00,West,274,8.0,16.0,50,0.00,,,0.00,,2013-04-13 12:45:00,
2013-04-13 06:55:00,35.0,19.0,-100.00,West,274,8.0,16.0,50,0.00,,,0.00,,2013-04-13 12:55:00,
2013-04-13 07:00:00,38.0,20.0,-100.00,West,276,13.0,19.0,47,0.00,,,0.00,,2013-04-13 13:00:00,
2013-04-13 07:45:00,38.0,20.0,-100.00,West,276,13.0,19.0,47,0.00,,,0.00,,2013-04-13 13:45:00,
2013-04-13 07:55:00,38.0,20.0,-100.00,West,276,13.0,19.0,47,0.00,,,0.00,,2013-04-13 13:55:00,
2013-04-13 08:00:00,40.0,21.0,-100.00,West,281,6.0,13.0,48,0.01,,,0.01,,2013-04-13 14:00:00,
2013-04-13 08:45:00,40.0,21.0,-100.00,West,281,6.0,13.0,48,0.01,,,0.01,,2013-04-13 14:45:00,
2013-04-13 08:58:00,40.0,21.0,-100.00,West,281,6.0,13.0,48,0.01,,,0.01,,2013-04-13 14:58:00,
2013-04-13 09:00:00,41.0,22.0,-100.00,WNW,288,9.0,17.0,47,0.00,,,0.01,,2013-04-13 15:00:00,
2013-04-13 09:43:00,41.0,22.0,-100.00,WNW,288,9.0,17.0,47,0.00,,,0.01,,2013-04-13 15:43:00,
2013-04-13 09:57:00,41.0,22.0,-100.00,WNW,288,9.0,17.0,47,0.00,,,0.01,,2013-04-13 15:57:00,
2013-04-13 10:00:00,42.0,22.0,-100.00,West,269,10.0,19.0,44,0.00,,,0.01,,2013-04-13 16:00:00,
2013-04-13 10:44:00,42.0,22.0,-100.00,West,269,10.0,19.0,44,0.00,,,0.01,,2013-04-13 16:44:00,
2013-04-13 10:55:00,42.0,22.0,-100.00,West,269,10.0,19.0,44,0.00,,,0.01,,2013-04-13 16:55:00,
2013-04-13 11:00:00,43.0,23.0,-100.00,WSW,251,22.0,34.0,46,0.03,,,0.04,,2013-04-13 17:00:00,
2013-04-13 11:43:00,43.0,23.0,-100.00,WSW,251,22.0,34.0,46,0.03,,,0.04,,2013-04-13 17:43:00,
2013-04-13 12:00:00,41.0,28.0,-100.00,WSW,242,21.0,29.0,60,0.05,,,0.08,,2013-04-13 18:00:00,
2013-04-13 12:42:00,41.0,28.0,-100.00,WSW,242,21.0,29.0,60,0.05,,,0.08,,2013-04-13 18:42:00,
2013-04-13 12:53:00,41.0,28.0,-100.00,WSW,242,21.0,29.0,60,0.05,,,0.08,,2013-04-13 18:53:00,
2013-04-13 13:00:00,42.0,27.0,-100.00,WSW,237,20.0,27.0,55,0.00,,,0.08,,2013-04-13 19:00:00,
2013-04-13 13:42:00,42.0,27.0,-100.00,WSW,237,20.0,27.0,55,0.00,,,0.08,,2013-04-13 19:42:00,
2013-04-13 13:53:00,42.0,27.0,-100.00,WSW,237,20.0,27.0,55,0.00,,,0.08,,2013-04-13 19:53:00,
2013-04-13 14:00:00,38.0,30.0,-100.00,WSW,243,17.0,23.0,74,0.00,,,0.08,,2013-04-13 20:00:00,
2013-04-13 14:42:00,38.0,30.0,-100.00,WSW,243,17.0,23.0,74,0.00,,,0.08,,2013-04-13 20:42:00,
2013-04-13 14:52:00,38.0,30.0,-100.00,WSW,243,17.0,23.0,74,0.00,,,0.08,,2013-04-13 20:52:00,
2013-04-13 15:00:00,35.0,32.0,-100.00,WSW,243,7.0,9.0,88,0.01,,,0.09,,2013-04-13 21:00:00,
2013-04-13 15:43:00,35.0,32.0,-100.00,WSW,243,7.0,9.0,88,0.01,,,0.09,,2013-04-13 21:43:00,
2013-04-13 15:53:00,35.0,32.0,-100.00,WSW,243,7.0,9.0,88,0.01,,,0.09,,2013-04-13 21:53:00,
2013-04-13 16:00:00,40.0,28.0,-100.00,WSW,248,16.0,22.0,61,0.01,,,0.10,,2013-04-13 22:00:00,
2013-04-13 16:42:00,40.0,28.0,-100.00,WSW,248,16.0,22.0,61,0.01,,,0.10,,2013-04-13 22:42:00,
2013-04-13 16:53:00,40.0,28.0,-100.00,WSW,248,16.0,22.0,61,0.01,,,0.10,,2013-04-13 22:53:00,
2013-04-13 17:00:00,36.0,31.0,-100.00,SW,222,11.0,16.0,84,0.00,,,0.10,,2013-04-13 23:00:00,
2013-04-13 17:41:00,36.0,31.0,-100.00,SW,222,11.0,16.0,84,0.00,,,0.10,,2013-04-13 23:41:00,
2013-04-13 17:53:00,36.0,31.0,-100.00,SW,222,11.0,16.0,84,0.00,,,0.10,,2013-04-13 23:53:00,
2013-04-13 19:00:00,34.0,19.0,-100.00,SW,228,12.0,16.0,53,0.00,,,0.10,,2013-04-14 01:00:00,
2013-04-13 19:42:00,34.0,19.0,-100.00,SW,228,12.0,16.0,53,0.00,,,0.10,,2013-04-14 01:42:00,
2013-04-13 19:53:00,34.0,19.0,-100.00,SW,228,12.0,16.0,53,0.00,,,0.10,,2013-04-14 01:53:00,
2013-04-13 20:00:00,33.0,15.0,-100.00,WSW,242,9.0,13.0,47,0.00,,,0.11,,2013-04-14 02:00:00,
2013-04-13 20:42:00,33.0,15.0,-100.00,WSW,242,9.0,13.0,47,0.00,,,0.11,,2013-04-14 02:42:00,
2013-04-13 20:53:00,33.0,15.0,-100.00,WSW,242,9.0,13.0,47,0.00,,,0.11,,2013-04-14 02:53:00,
2013-04-13 21:00:00,31.0,14.0,-100.00,West,264,4.0,6.0,50,0.00,,,0.11,,2013-04-14 03:00:00,
2013-04-13 21:42:00,31.0,14.0,-100.00,West,264,4.0,6.0,50,0.00,,,0.11,,2013-04-14 03:42:00,
2013-04-13 21:53:00,31.0,14.0,-100.00,West,264,4.0,6.0,50,0.00,,,0.11,,2013-04-14 03:53:00,
2013-04-13 23:00:00,27.0,9.0,-100.00,SW,234,15.0,25.0,46,0.00,,,0.11,,2013-04-14 05:00:00,
2013-04-13 23:42:00,27.0,9.0,-100.00,SW,234,15.0,25.0,46,0.00,,,0.11,,2013-04-14 05:42:00,
2013-04-13 23:52:00,27.0,9.0,-100.00,SW,234,15.0,25.0,46,0.00,,,0.11,,2013-04-14 05:52:00,